Location: East Horndon
(51.5667°N, 0.3500°E)
Time: 09:52:09
(UTC+00:00)

SWARM A - Pass Details

Date: 08 November 2025
Orbit: 425 x 428 km, 87.3° (Epoch: 11 December)

Event Time Altitude Azimuth Distance (km) Brightness Sun altitude
Rises 06:11:15 0° 183° (S) 2,405 8.2 -8.6°
Reaches altitude 10° 06:13:16 10° 184° (S) 1,543 7.2 -8.3°
Maximum altitude 06:16:37 81° 273° (W) 448 4.2 -7.8°
Drops below altitude 10° 06:19:59 10° 1° (N) 1,557 6.9 -7.3°
Sets 06:22:02 0° 2° (N) 2,430 7.9 -7.0°
